AAL2857 KMIA-TNCC

Flight info

Callsign AAL2857
Flight time 2h 20m
Altitude 37000
Route KLADA2 JAGOR Y398 JOSES UA315 VESKA VESKA1B
Aircraft A321/M-SDE3FGHIRWY/LB1

Departure

Time 2026-04-20 14:11
Airport Miami International Airport (KMIA)

Arrival

Time 2026-04-20 16:31
Airport Hato International Airport (TNCC)
Time Latitude Longitude Altitude Speed Heading
2026-04-20 14:03 25.79890 -80.28416 15 ft 0 kts 238°
2026-04-20 14:03 25.79887 -80.28421 15 ft 2 kts 238°
2026-04-20 14:04 25.79885 -80.28436 15 ft 1 kts 279°
2026-04-20 14:04 25.79894 -80.28447 15 ft 3 kts 303°
2026-04-20 14:04 25.79908 -80.28471 15 ft 5 kts 303°
2026-04-20 14:04 25.79928 -80.28505 15 ft 6 kts 303°
2026-04-20 14:05 25.79946 -80.28553 15 ft 7 kts 280°
2026-04-20 14:05 25.79943 -80.28614 15 ft 9 kts 265°
2026-04-20 14:05 25.79939 -80.28686 15 ft 10 kts 267°
2026-04-20 14:05 25.79935 -80.28768 18 ft 11 kts 267°
2026-04-20 14:06 25.79932 -80.28856 16 ft 11 kts 268°
2026-04-20 14:06 25.79928 -80.28950 15 ft 13 kts 268°
2026-04-20 14:06 25.79924 -80.29050 15 ft 12 kts 267°
2026-04-20 14:06 25.79920 -80.29146 15 ft 13 kts 267°
2026-04-20 14:07 25.79916 -80.29248 15 ft 13 kts 266°
2026-04-20 14:07 25.79910 -80.29352 15 ft 14 kts 266°
2026-04-20 14:07 25.79906 -80.29466 15 ft 15 kts 268°
2026-04-20 14:07 25.79902 -80.29590 15 ft 17 kts 268°
2026-04-20 14:08 25.79898 -80.29724 14 ft 17 kts 267°
2026-04-20 14:08 25.79891 -80.29840 14 ft 13 kts 266°
2026-04-20 14:08 25.79898 -80.29932 14 ft 12 kts 290°
2026-04-20 14:08 25.79943 -80.30013 14 ft 13 kts 300°
2026-04-20 14:09 25.79974 -80.30072 14 ft 7 kts 300°
2026-04-20 14:09 25.80001 -80.30117 14 ft 7 kts 319°
2026-04-20 14:09 25.80050 -80.30128 14 ft 6 kts 10°
2026-04-20 14:09 25.80071 -80.30088 14 ft 7 kts 82°
2026-04-20 14:10 25.80077 -80.29971 13 ft 38 kts 87°
2026-04-20 14:10 25.80102 -80.29382 15 ft 112 kts 87°
2026-04-20 14:10 25.80152 -80.28286 26 ft 169 kts 86°
2026-04-20 14:10 25.80226 -80.26955 601 ft 173 kts 85°
2026-04-20 14:11 25.80155 -80.25613 1301 ft 178 kts 106°
2026-04-20 14:11 25.79641 -80.24316 1692 ft 193 kts 116°
2026-04-20 14:11 25.79013 -80.22900 1937 ft 215 kts 116°
2026-04-20 14:11 25.78307 -80.21337 2113 ft 239 kts 116°
2026-04-20 14:12 25.77525 -80.19604 2467 ft 259 kts 116°
2026-04-20 14:12 25.76711 -80.17803 3241 ft 264 kts 116°
2026-04-20 14:12 25.75841 -80.15986 4005 ft 268 kts 117°
2026-04-20 14:12 25.74936 -80.14164 4817 ft 272 kts 118°
2026-04-20 14:13 25.74011 -80.12319 5584 ft 275 kts 118°
2026-04-20 14:13 25.73165 -80.10405 6327 ft 279 kts 110°
2026-04-20 14:13 25.72480 -80.08378 7080 ft 283 kts 110°
2026-04-20 14:13 25.71796 -80.06316 7807 ft 287 kts 110°
2026-04-20 14:14 25.71107 -80.04231 8491 ft 289 kts 110°
2026-04-20 14:14 25.70412 -80.02122 9088 ft 292 kts 110°
2026-04-20 14:14 25.69701 -79.99989 9688 ft 298 kts 110°
2026-04-20 14:14 25.68973 -79.97822 10308 ft 303 kts 110°
2026-04-20 14:15 25.68222 -79.95546 10522 ft 326 kts 110°
2026-04-20 14:15 25.67417 -79.93101 10646 ft 349 kts 110°
2026-04-20 14:15 25.66570 -79.90539 10813 ft 368 kts 110°
2026-04-20 14:15 25.65673 -79.87841 11283 ft 376 kts 110°
2026-04-20 14:16 25.64760 -79.85101 11880 ft 381 kts 111°
2026-04-20 14:16 25.63838 -79.82332 12494 ft 385 kts 111°
2026-04-20 14:16 25.62903 -79.79526 13088 ft 390 kts 111°
2026-04-20 14:16 25.61958 -79.76694 13685 ft 395 kts 111°
2026-04-20 14:17 25.60998 -79.73823 14248 ft 400 kts 111°
2026-04-20 14:17 25.60026 -79.70916 14801 ft 405 kts 111°
2026-04-20 14:17 25.58870 -79.68062 15340 ft 409 kts 117°
2026-04-20 14:17 25.57608 -79.65220 15892 ft 413 kts 117°
2026-04-20 14:18 25.56335 -79.62351 16431 ft 418 kts 117°
2026-04-20 14:18 25.55046 -79.59443 16940 ft 423 kts 117°
2026-04-20 14:18 25.53746 -79.56507 17459 ft 427 kts 117°
2026-04-20 14:18 25.52430 -79.53538 17945 ft 432 kts 117°
2026-04-20 14:19 25.51099 -79.50541 18447 ft 436 kts 117°
2026-04-20 14:19 25.49753 -79.47512 18928 ft 441 kts 117°
2026-04-20 14:19 25.48394 -79.44461 19417 ft 444 kts 117°
2026-04-20 14:19 25.47023 -79.41377 19882 ft 449 kts 117°
2026-04-20 14:20 25.45640 -79.38265 20328 ft 453 kts 117°
2026-04-20 14:20 25.44245 -79.35124 20772 ft 457 kts 117°
2026-04-20 14:20 25.42837 -79.31961 21213 ft 460 kts 118°
2026-04-20 14:20 25.41413 -79.28779 21620 ft 464 kts 118°
2026-04-20 14:21 25.39977 -79.25571 21992 ft 467 kts 118°
2026-04-20 14:21 25.38551 -79.22384 22364 ft 470 kts 118°
2026-04-20 14:21 25.37098 -79.19139 22730 ft 473 kts 118°
2026-04-20 14:21 25.35637 -79.15873 23103 ft 476 kts 118°
2026-04-20 14:22 25.34161 -79.12581 23461 ft 479 kts 118°
2026-04-20 14:22 25.32673 -79.09265 23815 ft 483 kts 118°
2026-04-20 14:22 25.31179 -79.05932 24173 ft 485 kts 118°
2026-04-20 14:22 25.29676 -79.02579 24529 ft 488 kts 118°
2026-04-20 14:23 25.28163 -78.99212 24871 ft 491 kts 118°
2026-04-20 14:23 25.26639 -78.95822 25191 ft 494 kts 118°
2026-04-20 14:23 25.25104 -78.92414 25525 ft 497 kts 118°
2026-04-20 14:23 25.23559 -78.88984 25856 ft 500 kts 118°
2026-04-20 14:24 25.22006 -78.85532 26181 ft 503 kts 118°
2026-04-20 14:24 25.20447 -78.82066 26492 ft 505 kts 118°
2026-04-20 14:24 25.18877 -78.78583 26793 ft 508 kts 118°
2026-04-20 14:24 25.17296 -78.75081 27087 ft 511 kts 118°
2026-04-20 14:25 25.15706 -78.71564 27387 ft 514 kts 118°
2026-04-20 14:25 25.14104 -78.68028 27681 ft 516 kts 118°
2026-04-20 14:25 25.12491 -78.64474 27968 ft 519 kts 118°
2026-04-20 14:25 25.10871 -78.60905 28280 ft 522 kts 119°
2026-04-20 14:26 25.09227 -78.57325 28569 ft 524 kts 120°
2026-04-20 14:26 25.07526 -78.53762 28850 ft 526 kts 121°
2026-04-20 14:26 25.05778 -78.50226 29198 ft 526 kts 121°
2026-04-20 14:26 25.04003 -78.46704 29582 ft 525 kts 122°
2026-04-20 14:27 25.02220 -78.43186 29943 ft 525 kts 122°
2026-04-20 14:27 25.00446 -78.39668 30310 ft 525 kts 121°
2026-04-20 14:27 24.98710 -78.36193 30673 ft 525 kts 121°
2026-04-20 14:27 24.96961 -78.32659 31020 ft 525 kts 121°
2026-04-20 14:28 24.95220 -78.29121 31362 ft 525 kts 121°
2026-04-20 14:28 24.93480 -78.25583 31683 ft 525 kts 121°
2026-04-20 14:28 24.91737 -78.22047 32019 ft 525 kts 121°
2026-04-20 14:28 24.89996 -78.18522 32361 ft 524 kts 121°
2026-04-20 14:29 24.88251 -78.14994 32693 ft 524 kts 121°
2026-04-20 14:29 24.86503 -78.11479 33014 ft 524 kts 121°
2026-04-20 14:29 24.84750 -78.07966 33327 ft 523 kts 121°
2026-04-20 14:29 24.82994 -78.04451 33642 ft 523 kts 121°
2026-04-20 14:30 24.81248 -78.00944 33951 ft 523 kts 120°
2026-04-20 14:30 24.79501 -77.97439 34233 ft 522 kts 120°
2026-04-20 14:30 24.77754 -77.93935 34546 ft 522 kts 120°
2026-04-20 14:30 24.76009 -77.90438 34851 ft 521 kts 120°
2026-04-20 14:31 24.74264 -77.86944 35123 ft 521 kts 120°
2026-04-20 14:31 24.72543 -77.83496 35408 ft 521 kts 120°
2026-04-20 14:31 24.70800 -77.80001 35693 ft 520 kts 120°
2026-04-20 14:31 24.69053 -77.76518 35947 ft 520 kts 122°
2026-04-20 14:32 24.67052 -77.73213 36176 ft 518 kts 130°
2026-04-20 14:32 24.64679 -77.70248 36395 ft 516 kts 137°
2026-04-20 14:32 24.62174 -77.67417 36610 ft 517 kts 137°
2026-04-20 14:32 24.59673 -77.64576 36871 ft 516 kts 137°
2026-04-20 14:33 24.57183 -77.61741 37078 ft 515 kts 137°
2026-04-20 14:33 24.54704 -77.58912 37119 ft 513 kts 137°
2026-04-20 14:33 24.50609 -77.54244 37119 ft 509 kts 137°
2026-04-20 14:34 24.45694 -77.48655 37118 ft 508 kts 137°
2026-04-20 14:34 24.40779 -77.43080 37120 ft 508 kts 137°
2026-04-20 14:35 24.35854 -77.37521 37118 ft 508 kts 137°
2026-04-20 14:35 24.30927 -77.31961 37123 ft 508 kts 137°
2026-04-20 14:36 24.26002 -77.26398 37128 ft 509 kts 137°
2026-04-20 14:36 24.21065 -77.20837 37134 ft 509 kts 137°
2026-04-20 14:37 24.16127 -77.15279 37137 ft 509 kts 137°
2026-04-20 14:37 24.11189 -77.09726 37138 ft 509 kts 137°
2026-04-20 14:38 24.06256 -77.04175 37140 ft 508 kts 137°
2026-04-20 14:38 24.01318 -76.98632 37138 ft 509 kts 137°
2026-04-20 14:39 23.96413 -76.93137 37142 ft 508 kts 137°
2026-04-20 14:39 23.91477 -76.87608 37146 ft 507 kts 137°
2026-04-20 14:40 23.86548 -76.82103 37145 ft 506 kts 137°
2026-04-20 14:40 23.81622 -76.76603 37142 ft 506 kts 137°
2026-04-20 14:41 23.76700 -76.71111 37143 ft 506 kts 137°
2026-04-20 14:41 23.71781 -76.65625 37143 ft 506 kts 137°
2026-04-20 14:42 23.66858 -76.60139 37139 ft 505 kts 137°
2026-04-20 14:42 23.61942 -76.54662 37136 ft 505 kts 137°
2026-04-20 14:43 23.57024 -76.49203 37136 ft 505 kts 137°
2026-04-20 14:43 23.52101 -76.43746 37130 ft 505 kts 137°
2026-04-20 14:44 23.47212 -76.38330 37129 ft 504 kts 137°
2026-04-20 14:44 23.42289 -76.32888 37135 ft 504 kts 137°
2026-04-20 14:45 23.37370 -76.27442 37131 ft 504 kts 137°
2026-04-20 14:45 23.32452 -76.22005 37134 ft 504 kts 137°
2026-04-20 14:46 23.27531 -76.16581 37138 ft 504 kts 137°
2026-04-20 14:46 23.22604 -76.11155 37134 ft 504 kts 137°
2026-04-20 14:47 23.17680 -76.05721 37132 ft 504 kts 137°
2026-04-20 14:48 23.10284 -75.97606 37130 ft 504 kts 137°
2026-04-20 14:48 23.05348 -75.92193 37132 ft 504 kts 137°
2026-04-20 14:49 23.00418 -75.86782 37135 ft 504 kts 137°
2026-04-20 14:49 22.95526 -75.81412 37135 ft 503 kts 137°
2026-04-20 14:50 22.90598 -75.76022 37132 ft 502 kts 137°
2026-04-20 14:50 22.85672 -75.70649 37131 ft 502 kts 137°
2026-04-20 14:51 22.80756 -75.65273 37129 ft 502 kts 137°
2026-04-20 14:51 22.75830 -75.59907 37128 ft 502 kts 137°
2026-04-20 14:52 22.70906 -75.54554 37128 ft 501 kts 137°
2026-04-20 14:52 22.65988 -75.49202 37126 ft 501 kts 137°
2026-04-20 14:53 22.61084 -75.43850 37124 ft 500 kts 137°
2026-04-20 14:53 22.56176 -75.38509 37122 ft 500 kts 137°
2026-04-20 14:54 22.51250 -75.33183 37122 ft 501 kts 137°
2026-04-20 14:54 22.46355 -75.27896 37124 ft 501 kts 137°
2026-04-20 14:55 22.41432 -75.22563 37120 ft 501 kts 137°
2026-04-20 14:55 22.36501 -75.17235 37121 ft 501 kts 137°
2026-04-20 14:56 22.31569 -75.11908 37124 ft 501 kts 137°
2026-04-20 14:56 22.26635 -75.06585 37124 ft 501 kts 137°
2026-04-20 14:57 22.21710 -75.01263 37124 ft 501 kts 137°
2026-04-20 14:57 22.16785 -74.95948 37122 ft 500 kts 137°
2026-04-20 14:58 22.11846 -74.90657 37122 ft 500 kts 137°
2026-04-20 14:58 22.06917 -74.85369 37119 ft 500 kts 137°
2026-04-20 14:59 22.01996 -74.80074 37119 ft 500 kts 137°
2026-04-20 14:59 21.97101 -74.74822 37120 ft 500 kts 137°
2026-04-20 15:00 21.92171 -74.69547 37122 ft 499 kts 137°
2026-04-20 15:00 21.87237 -74.64278 37124 ft 499 kts 137°
2026-04-20 15:01 21.82309 -74.59010 37123 ft 499 kts 137°
2026-04-20 15:01 21.77382 -74.53744 37124 ft 499 kts 137°
2026-04-20 15:02 21.72455 -74.48479 37116 ft 500 kts 137°
2026-04-20 15:02 21.67518 -74.43217 37112 ft 500 kts 137°
2026-04-20 15:03 21.62575 -74.37954 37117 ft 500 kts 137°
2026-04-20 15:03 21.57629 -74.32695 37114 ft 500 kts 137°
2026-04-20 15:04 21.52684 -74.27440 37114 ft 501 kts 137°
2026-04-20 15:04 21.47766 -74.22222 37114 ft 500 kts 137°
2026-04-20 15:05 21.42821 -74.16979 37115 ft 500 kts 137°
2026-04-20 15:05 21.37869 -74.11744 37117 ft 500 kts 137°
2026-04-20 15:06 21.32917 -74.06519 37103 ft 499 kts 137°
2026-04-20 15:06 21.27979 -74.01288 37109 ft 499 kts 137°
2026-04-20 15:07 21.23035 -73.96064 37102 ft 499 kts 137°
2026-04-20 15:07 21.18091 -73.90851 37094 ft 499 kts 137°
2026-04-20 15:08 21.13142 -73.85643 37101 ft 499 kts 137°
2026-04-20 15:08 21.08196 -73.80430 37101 ft 499 kts 137°
2026-04-20 15:09 21.03248 -73.75218 37112 ft 499 kts 137°
2026-04-20 15:09 20.98286 -73.70021 37107 ft 498 kts 140°
2026-04-20 15:10 20.92674 -73.65799 37107 ft 491 kts 156°
2026-04-20 15:10 20.86627 -73.62396 37111 ft 491 kts 156°
2026-04-20 15:11 20.80591 -73.58973 37105 ft 491 kts 156°
2026-04-20 15:11 20.74592 -73.55579 37109 ft 491 kts 156°
2026-04-20 15:12 20.68552 -73.52182 37099 ft 491 kts 156°
2026-04-20 15:12 20.62513 -73.48784 37103 ft 491 kts 156°
2026-04-20 15:13 20.56475 -73.45388 37100 ft 491 kts 156°
2026-04-20 15:13 20.50436 -73.41992 37093 ft 490 kts 156°
2026-04-20 15:14 20.44396 -73.38603 37099 ft 490 kts 156°
2026-04-20 15:14 20.38359 -73.35214 37094 ft 490 kts 156°
2026-04-20 15:15 20.32326 -73.31838 37093 ft 490 kts 156°
2026-04-20 15:15 20.26293 -73.28467 37094 ft 490 kts 156°
2026-04-20 15:16 20.20262 -73.25089 37091 ft 490 kts 156°
2026-04-20 15:16 20.14272 -73.21731 37092 ft 490 kts 156°
2026-04-20 15:17 20.08239 -73.18365 37086 ft 490 kts 156°
2026-04-20 15:17 20.02201 -73.15006 37083 ft 490 kts 156°
2026-04-20 15:18 19.96169 -73.11658 37082 ft 489 kts 156°
2026-04-20 15:18 19.90141 -73.08304 37085 ft 489 kts 156°
2026-04-20 15:19 19.84122 -73.04932 37081 ft 489 kts 155°
2026-04-20 15:19 19.78121 -73.01542 37080 ft 489 kts 155°
2026-04-20 15:20 19.72152 -72.98080 37085 ft 489 kts 154°
2026-04-20 15:20 19.66244 -72.94481 37082 ft 489 kts 153°
2026-04-20 15:21 19.60345 -72.90882 37075 ft 489 kts 153°
2026-04-20 15:21 19.54428 -72.87313 37074 ft 489 kts 154°
2026-04-20 15:22 19.48500 -72.83768 37071 ft 489 kts 154°
2026-04-20 15:22 19.42609 -72.80250 37071 ft 490 kts 154°
2026-04-20 15:23 19.36678 -72.76706 37073 ft 490 kts 154°
2026-04-20 15:23 19.30747 -72.73150 37076 ft 490 kts 154°
2026-04-20 15:24 19.24816 -72.69594 37076 ft 490 kts 154°
2026-04-20 15:24 19.18879 -72.66059 37076 ft 490 kts 154°
2026-04-20 15:25 19.12942 -72.62519 37078 ft 490 kts 153°
2026-04-20 15:25 19.07006 -72.58979 37078 ft 489 kts 154°
2026-04-20 15:26 19.01048 -72.55507 37080 ft 489 kts 154°
2026-04-20 15:26 18.95077 -72.52072 37081 ft 489 kts 154°
2026-04-20 15:27 18.89112 -72.48629 37076 ft 488 kts 154°
2026-04-20 15:27 18.83164 -72.45181 37078 ft 488 kts 154°
2026-04-20 15:28 18.77222 -72.41734 37076 ft 487 kts 154°
2026-04-20 15:28 18.71292 -72.38296 37073 ft 486 kts 154°
2026-04-20 15:29 18.65359 -72.34871 37070 ft 486 kts 154°
2026-04-20 15:29 18.59468 -72.31470 37072 ft 486 kts 154°
2026-04-20 15:30 18.53491 -72.28160 37072 ft 485 kts 157°
2026-04-20 15:30 18.47399 -72.25125 37074 ft 484 kts 158°
2026-04-20 15:31 18.42278 -72.22637 37074 ft 484 kts 158°
2026-04-20 15:31 18.36222 -72.19633 37073 ft 485 kts 157°
2026-04-20 15:32 18.30149 -72.16553 37074 ft 484 kts 157°
2026-04-20 15:32 18.24106 -72.13415 37078 ft 485 kts 155°
2026-04-20 15:33 18.18195 -72.09989 37080 ft 486 kts 153°
2026-04-20 15:33 18.12337 -72.06452 37080 ft 486 kts 153°
2026-04-20 15:34 18.06452 -72.02964 37083 ft 485 kts 153°
2026-04-20 15:34 18.00540 -71.99541 37082 ft 485 kts 154°
2026-04-20 15:35 17.94625 -71.96130 37081 ft 485 kts 154°
2026-04-20 15:35 17.88738 -71.92649 37083 ft 486 kts 152°
2026-04-20 15:36 17.82949 -71.88971 37085 ft 487 kts 150°
2026-04-20 15:36 17.77179 -71.85257 37087 ft 486 kts 151°
2026-04-20 15:37 17.71428 -71.81624 37085 ft 486 kts 152°
2026-04-20 15:37 17.65622 -71.77996 37095 ft 486 kts 152°
2026-04-20 15:38 17.59818 -71.74368 37086 ft 485 kts 151°
2026-04-20 15:38 17.54032 -71.70739 37099 ft 485 kts 151°
2026-04-20 15:39 17.48243 -71.67104 37089 ft 485 kts 151°
2026-04-20 15:39 17.42459 -71.63478 37091 ft 485 kts 151°
2026-04-20 15:40 17.36671 -71.59858 37094 ft 485 kts 151°
2026-04-20 15:40 17.30878 -71.56241 37099 ft 484 kts 151°
2026-04-20 15:41 17.25101 -71.52622 37089 ft 484 kts 151°
2026-04-20 15:41 17.19331 -71.49014 37098 ft 483 kts 151°
2026-04-20 15:42 17.13550 -71.45410 37088 ft 483 kts 151°
2026-04-20 15:42 17.07778 -71.41811 37088 ft 483 kts 151°
2026-04-20 15:43 17.02014 -71.38201 37091 ft 483 kts 151°
2026-04-20 15:43 16.96245 -71.34596 37099 ft 483 kts 151°
2026-04-20 15:44 16.90469 -71.30999 37098 ft 484 kts 151°
2026-04-20 15:44 16.84689 -71.27406 37089 ft 483 kts 151°
2026-04-20 15:45 16.78923 -71.23820 37083 ft 482 kts 151°
2026-04-20 15:45 16.73162 -71.20238 37084 ft 482 kts 151°
2026-04-20 15:46 16.67399 -71.16660 37085 ft 482 kts 151°
2026-04-20 15:46 16.61635 -71.13086 37084 ft 482 kts 151°
2026-04-20 15:47 16.55870 -71.09517 37084 ft 482 kts 151°
2026-04-20 15:47 16.50107 -71.05953 37096 ft 482 kts 151°
2026-04-20 15:48 16.44344 -71.02387 37091 ft 481 kts 151°
2026-04-20 15:48 16.38592 -70.98830 37093 ft 481 kts 151°
2026-04-20 15:49 16.32890 -70.95291 37085 ft 480 kts 150°
2026-04-20 15:49 16.27149 -70.91741 37078 ft 480 kts 151°
2026-04-20 15:50 16.21409 -70.88202 37079 ft 480 kts 151°
2026-04-20 15:50 16.15669 -70.84657 37083 ft 480 kts 151°
2026-04-20 15:51 16.09930 -70.81124 37084 ft 479 kts 151°
2026-04-20 15:51 16.04192 -70.77588 37096 ft 479 kts 150°
2026-04-20 15:52 15.98364 -70.74261 37083 ft 477 kts 159°
2026-04-20 15:52 15.92252 -70.71584 37099 ft 476 kts 159°
2026-04-20 15:53 15.83112 -70.67555 37083 ft 475 kts 159°
2026-04-20 15:53 15.77032 -70.64863 37084 ft 475 kts 159°
2026-04-20 15:54 15.70954 -70.62176 37084 ft 475 kts 159°
2026-04-20 15:54 15.64877 -70.59495 37084 ft 475 kts 159°
2026-04-20 15:55 15.58798 -70.56819 37083 ft 474 kts 159°
2026-04-20 15:55 15.52715 -70.54149 37078 ft 475 kts 159°
2026-04-20 15:56 15.46633 -70.51480 37076 ft 474 kts 159°
2026-04-20 15:56 15.40563 -70.48810 37072 ft 474 kts 159°
2026-04-20 15:57 15.34495 -70.46140 37073 ft 474 kts 159°
2026-04-20 15:57 15.28429 -70.43474 37075 ft 474 kts 159°
2026-04-20 15:58 15.22359 -70.40811 37072 ft 473 kts 159°
2026-04-20 15:58 15.16292 -70.38152 37070 ft 474 kts 159°
2026-04-20 15:59 15.10220 -70.35497 37069 ft 473 kts 159°
2026-04-20 15:59 15.04160 -70.32842 37070 ft 473 kts 159°
2026-04-20 16:00 14.98101 -70.30189 37069 ft 473 kts 159°
2026-04-20 16:00 14.92040 -70.27540 37067 ft 472 kts 159°
2026-04-20 16:01 14.85991 -70.24895 37062 ft 472 kts 159°
2026-04-20 16:01 14.79941 -70.22257 37062 ft 471 kts 159°
2026-04-20 16:02 14.73898 -70.19628 37058 ft 471 kts 159°
2026-04-20 16:02 14.67908 -70.17013 36779 ft 469 kts 158°
2026-04-20 16:03 14.64907 -70.15701 36528 ft 468 kts 158°
2026-04-20 16:03 14.61913 -70.14391 36279 ft 467 kts 158°
2026-04-20 16:03 14.58878 -70.13064 36027 ft 468 kts 159°
2026-04-20 16:03 14.55913 -70.11773 35784 ft 470 kts 159°
2026-04-20 16:04 14.52853 -70.10441 35526 ft 472 kts 158°
2026-04-20 16:04 14.49861 -70.09136 35282 ft 474 kts 159°
2026-04-20 16:04 14.46815 -70.07812 35034 ft 475 kts 159°
2026-04-20 16:04 14.43768 -70.06487 34783 ft 475 kts 159°
2026-04-20 16:05 14.40722 -70.05158 34532 ft 475 kts 159°
2026-04-20 16:05 14.37680 -70.03831 34282 ft 475 kts 159°
2026-04-20 16:05 14.34633 -70.02506 34031 ft 475 kts 159°
2026-04-20 16:05 14.31590 -70.01185 33780 ft 475 kts 159°
2026-04-20 16:06 14.28544 -69.99862 33540 ft 475 kts 159°
2026-04-20 16:06 14.25493 -69.98538 33280 ft 477 kts 159°
2026-04-20 16:06 14.22432 -69.97209 33029 ft 478 kts 158°
2026-04-20 16:06 14.19367 -69.95881 32785 ft 478 kts 158°
2026-04-20 16:07 14.16293 -69.94551 32529 ft 480 kts 158°
2026-04-20 16:07 14.13211 -69.93218 32280 ft 481 kts 158°
2026-04-20 16:07 14.10124 -69.91879 32031 ft 482 kts 158°
2026-04-20 16:07 14.07026 -69.90531 31784 ft 484 kts 158°
2026-04-20 16:08 14.03920 -69.89180 31529 ft 485 kts 158°
2026-04-20 16:08 14.00807 -69.87830 31278 ft 486 kts 158°
2026-04-20 16:08 13.97724 -69.86496 31032 ft 488 kts 158°
2026-04-20 16:08 13.94547 -69.85124 30777 ft 489 kts 158°
2026-04-20 16:09 13.91445 -69.83783 30532 ft 491 kts 158°
2026-04-20 16:09 13.88294 -69.82416 30281 ft 492 kts 157°
2026-04-20 16:09 13.85132 -69.81044 30039 ft 493 kts 157°
2026-04-20 16:09 13.81966 -69.79672 29779 ft 495 kts 157°
2026-04-20 16:10 13.78791 -69.78300 29522 ft 496 kts 157°
2026-04-20 16:10 13.75610 -69.76926 29281 ft 494 kts 157°
2026-04-20 16:10 13.72475 -69.75573 29024 ft 482 kts 157°
2026-04-20 16:10 13.69420 -69.74254 28771 ft 470 kts 157°
2026-04-20 16:11 13.66442 -69.72965 28506 ft 459 kts 157°
2026-04-20 16:11 13.63534 -69.71707 28266 ft 448 kts 157°
2026-04-20 16:11 13.60691 -69.70480 28021 ft 438 kts 157°
2026-04-20 16:11 13.57908 -69.69282 27768 ft 429 kts 157°
2026-04-20 16:12 13.55176 -69.68107 27516 ft 422 kts 157°
2026-04-20 16:12 13.52492 -69.66948 27268 ft 415 kts 157°
2026-04-20 16:12 13.49852 -69.65807 27016 ft 409 kts 157°
2026-04-20 16:12 13.47241 -69.64681 26765 ft 406 kts 157°
2026-04-20 16:13 13.44642 -69.63560 26516 ft 404 kts 157°
2026-04-20 16:13 13.42061 -69.62447 26265 ft 401 kts 157°
2026-04-20 16:13 13.39492 -69.61340 26014 ft 400 kts 157°
2026-04-20 16:13 13.36932 -69.60234 25689 ft 399 kts 156°
2026-04-20 16:14 13.34371 -69.59128 25175 ft 399 kts 156°
2026-04-20 16:14 13.31816 -69.58026 24721 ft 397 kts 156°
2026-04-20 16:14 13.29275 -69.56933 24281 ft 395 kts 156°
2026-04-20 16:14 13.26748 -69.55847 23846 ft 392 kts 156°
2026-04-20 16:15 13.24237 -69.54767 23412 ft 390 kts 156°
2026-04-20 16:15 13.21748 -69.53696 22992 ft 386 kts 156°
2026-04-20 16:15 13.19278 -69.52634 22582 ft 383 kts 156°
2026-04-20 16:15 13.16832 -69.51585 22175 ft 380 kts 156°
2026-04-20 16:16 13.14437 -69.50560 21777 ft 376 kts 156°
2026-04-20 16:16 13.12032 -69.49531 21369 ft 373 kts 156°
2026-04-20 16:16 13.09651 -69.48508 20963 ft 370 kts 156°
2026-04-20 16:16 13.07287 -69.47492 20560 ft 366 kts 156°
2026-04-20 16:17 13.04948 -69.46487 20153 ft 363 kts 156°
2026-04-20 16:17 13.02628 -69.45491 19748 ft 360 kts 156°
2026-04-20 16:17 13.00328 -69.44501 19361 ft 356 kts 156°
2026-04-20 16:17 12.98056 -69.43525 18955 ft 353 kts 156°
2026-04-20 16:18 12.95801 -69.42557 18543 ft 350 kts 156°
2026-04-20 16:18 12.93566 -69.41595 18147 ft 347 kts 156°
2026-04-20 16:18 12.91351 -69.40642 17750 ft 344 kts 156°
2026-04-20 16:18 12.89151 -69.39694 17351 ft 341 kts 156°
2026-04-20 16:19 12.86971 -69.38757 16941 ft 339 kts 156°
2026-04-20 16:19 12.84803 -69.37829 16543 ft 336 kts 156°
2026-04-20 16:19 12.82652 -69.36908 16133 ft 334 kts 156°
2026-04-20 16:19 12.80513 -69.35990 15724 ft 332 kts 156°
2026-04-20 16:20 12.78392 -69.35079 15321 ft 330 kts 156°
2026-04-20 16:20 12.76991 -69.34480 15057 ft 328 kts 156°
2026-04-20 16:20 12.74891 -69.33582 14653 ft 326 kts 156°
2026-04-20 16:20 12.72801 -69.32691 14261 ft 324 kts 156°
2026-04-20 16:21 12.70729 -69.31806 13865 ft 322 kts 156°
2026-04-20 16:21 12.68668 -69.30923 13468 ft 320 kts 156°
2026-04-20 16:21 12.66623 -69.30049 13070 ft 318 kts 156°
2026-04-20 16:21 12.64589 -69.29180 12683 ft 316 kts 156°
2026-04-20 16:22 12.62568 -69.28316 12292 ft 314 kts 156°
2026-04-20 16:22 12.60561 -69.27458 11885 ft 312 kts 156°
2026-04-20 16:22 12.58564 -69.26604 11499 ft 310 kts 156°
2026-04-20 16:22 12.56579 -69.25756 11123 ft 308 kts 156°
2026-04-20 16:23 12.54612 -69.24916 10750 ft 306 kts 156°
2026-04-20 16:23 12.52655 -69.24079 10375 ft 304 kts 156°
2026-04-20 16:23 12.50710 -69.23251 10009 ft 302 kts 156°
2026-04-20 16:23 12.48782 -69.22428 9652 ft 299 kts 156°
2026-04-20 16:24 12.46870 -69.21611 9291 ft 296 kts 155°
2026-04-20 16:24 12.44974 -69.20800 8915 ft 295 kts 155°
2026-04-20 16:24 12.43089 -69.19997 8545 ft 292 kts 155°
2026-04-20 16:24 12.41215 -69.19201 8192 ft 290 kts 155°
2026-04-20 16:25 12.39385 -69.18423 7842 ft 288 kts 155°
2026-04-20 16:25 12.37542 -69.17636 7472 ft 285 kts 155°
2026-04-20 16:25 12.35714 -69.16855 7097 ft 284 kts 155°
2026-04-20 16:25 12.33898 -69.16081 6727 ft 282 kts 156°
2026-04-20 16:26 12.31976 -69.15590 6090 ft 293 kts 172°
2026-04-20 16:26 12.29903 -69.15460 5305 ft 304 kts 175°
2026-04-20 16:26 12.27743 -69.15346 4474 ft 316 kts 174°
2026-04-20 16:26 12.25513 -69.15223 3627 ft 325 kts 173°
2026-04-20 16:27 12.23399 -69.14574 3178 ft 312 kts 145°
2026-04-20 16:27 12.21976 -69.13020 2908 ft 295 kts 115°
2026-04-20 16:27 12.21580 -69.11033 2582 ft 284 kts 86°
2026-04-20 16:27 12.21781 -69.09076 2502 ft 268 kts 90°
2026-04-20 16:28 12.21374 -69.07293 2484 ft 250 kts 109°
2026-04-20 16:28 12.20864 -69.05698 2280 ft 224 kts 103°
2026-04-20 16:28 12.20632 -69.04190 1978 ft 205 kts 95°
2026-04-20 16:28 12.20463 -69.02860 1820 ft 172 kts 98°
2026-04-20 16:29 12.20209 -69.01763 1611 ft 149 kts 104°
2026-04-20 16:29 12.19937 -69.00768 1229 ft 143 kts 104°
2026-04-20 16:29 12.19697 -68.99817 960 ft 136 kts 100°
2026-04-20 16:29 12.19499 -68.98885 684 ft 133 kts 99°
2026-04-20 16:30 12.19319 -68.97959 386 ft 132 kts 101°
2026-04-20 16:30 12.19117 -68.97046 123 ft 132 kts 100°
2026-04-20 16:30 12.18936 -68.96157 45 ft 116 kts 102°
2026-04-20 16:30 12.18810 -68.95592 40 ft 57 kts 103°
2026-04-20 16:31 12.18744 -68.95403 41 ft 13 kts 154°
2026-04-20 16:31 12.18664 -68.95413 42 ft 8 kts 195°
2026-04-20 16:31 12.18646 -68.95418 43 ft 1 kts 195°
2026-04-20 16:31 12.18641 -68.95419 43 ft 0 kts 195°
2026-04-20 16:32 12.18634 -68.95422 43 ft 2 kts 202°
2026-04-20 16:32 12.18619 -68.95442 43 ft 5 kts 237°
2026-04-20 16:32 12.18609 -68.95479 43 ft 6 kts 272°
2026-04-20 16:32 12.18617 -68.95531 43 ft 8 kts 280°
2026-04-20 16:33 12.18627 -68.95588 43 ft 7 kts 280°
2026-04-20 16:33 12.18636 -68.95637 43 ft 6 kts 278°
2026-04-20 16:33 12.18620 -68.95665 43 ft 4 kts 208°
2026-04-20 16:33 12.18587 -68.95673 43 ft 6 kts 194°
2026-04-20 16:34 12.18561 -68.95679 43 ft 3 kts 188°
2026-04-20 16:34 12.18551 -68.95681 43 ft 1 kts 192°
2026-04-20 16:34 12.18550 -68.95681 43 ft 0 kts 192°